Home   Weather   Schwabach   Past weeks
Flag for Germany

Past Weather in Schwabach, Bavaria, Germany — Yesterday and Last 2 Weeks

Now
48 °F

Light fog.


Feels Like: 46 °F
Forecast: 64 / 48 °F
Wind: 5 mph from Southeast

Location: Nuernberg

Current Time: Oct 23, 2019 at 11:37:26 pm

Latest Report: Oct 23, 2019 at 10:50 pm


Visibility: 4 mi

Pressure: 29.92 "Hg

Humidity: 100%

Dew Point: 48 °F

Location of SchwabachLocation

Past Weather in Schwabach — Graph

°F

Schwabach Temperature Yesterday

Maximum temperature yesterday: 61 °F (at 3:20 pm)
Minimum temperature yesterday: 46 °F (at 11:20 pm)
Average temperature yesterday: 52 °F

High & Low Weather Summary for the Past Weeks

 TemperatureHumidityPressure
High77 °F (Oct 13, 3:50 pm)100% (Oct 8, 10:20 pm)30.27 "Hg (Oct 8, 10:20 pm)
Low43 °F (Oct 11, 1:50 am)47% (Oct 13, 4:20 pm)29.68 "Hg (Oct 15, 3:50 pm)
Average55 °F84%29.97 "Hg
* Reported Oct 8 10:20 pm — Oct 23 10:20 pm, Schwabach. Weather by CustomWeather, © 2019

Note: Actual official high and low records may vary slightly from our data, if they occured in-between our weather recording intervals... More about our weather records

Advertising

Schwabach Weather History for the Previous 24 Hours

Scroll right to see more
 ConditionsComfort  
Time TempWeatherWind HumidityBarometerVisibility
10:20 pm
Wed, Oct 23
50 °FCool.3 mph100%29.92 "Hg4 mi
9:50 pm48 °FLight fog.5 mph100%29.92 "Hg4 mi
9:20 pm48 °FLight fog.3 mph94%29.95 "Hg4 mi
8:50 pm50 °FLight fog.5 mph100%29.95 "Hg4 mi
8:20 pm50 °FClear.3 mph100%29.95 "Hg10 mi
7:50 pm52 °FClear.2 mph94%29.98 "Hg10 mi
7:20 pm54 °FClear.3 mph94%29.98 "Hg10 mi
6:50 pm54 °FPassing clouds.5 mph94%29.98 "HgN/A
6:20 pm55 °FPassing clouds.8 mph88%29.98 "HgN/A
5:50 pm57 °FPartly sunny.9 mph82%29.98 "HgN/A
5:20 pm57 °FPartly sunny.10 mph82%29.98 "HgN/A
4:50 pm59 °FPartly sunny.9 mph82%29.98 "HgN/A
4:20 pm59 °FPartly sunny.10 mph82%29.98 "HgN/A
3:50 pm59 °FPartly sunny.10 mph82%29.98 "HgN/A
3:20 pm59 °FPartly sunny.10 mph82%30.01 "HgN/A
2:50 pm59 °FPartly sunny.10 mph82%30.01 "HgN/A
2:20 pm59 °FOvercast.10 mph82%30.01 "HgN/A
1:50 pm59 °FOvercast.10 mph82%30.04 "HgN/A
1:20 pm59 °FOvercast.10 mph82%30.04 "HgN/A
12:50 pm57 °FOvercast.8 mph94%30.04 "HgN/A
12:20 pm57 °FOvercast.8 mph94%30.07 "HgN/A
11:50 am57 °FLow clouds.8 mph88%30.07 "HgN/A
11:20 am57 °FLow clouds.8 mph88%30.07 "HgN/A
10:50 am55 °FDrizzle. More clouds than sun.8 mph94%30.09 "HgN/A
10:20 am55 °FDrizzle. More clouds than sun.6 mph94%30.09 "Hg6 mi
9:50 am55 °FDrizzle. More clouds than sun.6 mph94%30.09 "Hg5 mi
9:20 am54 °FDrizzle. Low clouds.6 mph100%30.09 "Hg3 mi
8:50 am54 °FDrizzle. Low clouds.3 mph100%30.09 "Hg2 mi
8:20 am54 °FDrizzle. Low clouds.2 mph100%30.09 "Hg3 mi
7:50 am54 °FFog.5 mph100%30.09 "Hg3 mi
7:20 am54 °FLow clouds.7 mph94%30.09 "Hg5 mi
6:50 am54 °FDrizzle. Low clouds.9 mph94%30.09 "Hg4 mi
6:20 am54 °FLow clouds.8 mph94%30.09 "Hg4 mi
5:50 am52 °FFog.2 mph100%30.09 "Hg2 mi
5:20 am50 °FFog.2 mph100%30.09 "Hg3 mi
4:50 am50 °FFog.2 mph100%30.12 "Hg3 mi
4:20 am48 °FFog.2 mph100%30.12 "Hg3 mi
3:50 am48 °FFog.1 mph100%30.12 "Hg3 mi
3:20 am48 °FFog.2 mph100%30.15 "Hg3 mi
2:50 am46 °FFog.1 mph100%30.15 "Hg2 mi
2:20 am45 °FFog.1 mph100%30.15 "Hg2 mi
1:50 am45 °FFog.No wind100%30.15 "Hg2 mi
1:20 am45 °FFog.3 mph100%30.15 "Hg2 mi
12:50 am46 °FFog.1 mph100%30.18 "Hg1 mi
12:20 am45 °FFog.2 mph100%30.18 "Hg1 mi
11:50 pm
Tue, Oct 22
46 °FLight fog.2 mph100%30.18 "Hg4 mi
11:20 pm46 °FLight fog.1 mph100%30.18 "Hg6 mi
Weather by CustomWeather, © 2019

See weather overview